STARLINK-1882 (46784 NORAD) Tracking and Keplerian Element Data

This shows tracking and keplerian element data for the satellite.

Feedback or suggestion? Click here.




ElementValue
Catalog46784
NameSTARLINK-1882
Epoch Orbit528
Epoch Day331.16668981
Epoch Year2020
RAAN0.7986
Inclination53.0553
Eccentricity0.0001
Argument of Perigee66.8238
Mean Anonmoly135.4333
Mean Motion15.62784296
Decay Rate7.805E-05
L11 46784U 20074AX 20331.16668981 .00007805 00000-0 90881-4 0 9996
L22 46784 53.0553 0.7986 0001000 66.8238 135.4333 15.62784296 5283

Live tracking and technical data element details for STARLINK-1882 (NORAD 46784). STARLINK-1882 can be tracked NOW for your location showing map with azimuth and elevation plus other details from your city location.

Track the satellite on the map from your city or location and see movement details for azimuth, elevation, latitude, longitude, range, height, and movement on the map or in text.







IsCatalogInMostPopularTable: catalog: 46784, numindb: 7
Update: records affected: 1



GetName: 46784 STARLINK-1882

Hit Count: updated at: Thu, 26 Nov 2020 21:43:32 GMT